owner,sensor,date,latitude,longitude,vertical_datum,sea_water_practical_salinity,qcFlag 
SCCF RECON,ioos:station:SCCF:56:1,2019-01-01T05:00:00Z,26.4645,-82.1044,1.7,33.07,1111122 
SCCF RECON,ioos:station:SCCF:56:1,2019-01-01T06:00:00Z,26.4645,-82.1044,1.57,33.03,1111122 
SCCF RECON,ioos:station:SCCF:56:1,2019-01-01T07:00:00Z,26.4645,-82.1044,1.432,32.94,1111122 
SCCF RECON,ioos:station:SCCF:56:1,2019-01-01T08:00:00Z,26.4645,-82.1044,1.32,32.89,1111122 
SCCF RECON,ioos:station:SCCF:56:1,2019-01-01T09:00:00Z,26.4645,-82.1044,1.22,32.87,1111122 
SCCF RECON,ioos:station:SCCF:56:1,2019-01-01T10:00:00Z,26.4645,-82.1044,1.18,32.89,1111122 
SCCF RECON,ioos:station:SCCF:56:1,2019-01-01T11:00:00Z,26.4645,-82.1044,1.27,32.89,1111122 
SCCF RECON,ioos:station:SCCF:56:1,2019-01-01T12:00:00Z,26.4645,-82.1044,1.406,32.93,1111122 
SCCF RECON,ioos:station:SCCF:56:1,2019-01-01T13:00:00Z,26.4645,-82.1044,1.5,32.94,1111122 
SCCF RECON,ioos:station:SCCF:56:1,2019-01-01T14:00:00Z,26.4645,-82.1044,1.56,32.99,1111122 
SCCF RECON,ioos:station:SCCF:56:1,2019-01-01T15:00:00Z,26.4645,-82.1044,1.62,33.02,1111122 
SCCF RECON,ioos:station:SCCF:56:1,2019-01-01T16:00:00Z,26.4645,-82.1044,1.66,33.02,1111122 
SCCF RECON,ioos:station:SCCF:56:1,2019-01-01T17:00:00Z,26.4645,-82.1044,1.65,33.04,1111122 
SCCF RECON,ioos:station:SCCF:56:1,2019-01-01T18:00:00Z,26.4645,-82.1044,1.585,33.06,1111122 
SCCF RECON,ioos:station:SCCF:56:1,2019-01-01T19:00:00Z,26.4645,-82.1044,1.52,33.06,1111122 
SCCF RECON,ioos:station:SCCF:56:1,2019-01-01T20:00:00Z,26.4645,-82.1044,1.48,33.06,1111122 
SCCF RECON,ioos:station:SCCF:56:1,2019-01-01T21:00:00Z,26.4645,-82.1044,1.47,33.06,1111122 
SCCF RECON,ioos:station:SCCF:56:1,2019-01-01T22:00:00Z,26.4645,-82.1044,1.53,33.07,1111122 
SCCF RECON,ioos:station:SCCF:56:1,2019-01-01T23:00:00Z,26.4645,-82.1044,1.618,33.1,1111122 
SCCF RECON,ioos:station:SCCF:56:1,2019-01-02T05:00:00Z,26.4645,-82.1044,1.69,33.05,1111122 
SCCF RECON,ioos:station:SCCF:56:1,2019-01-02T06:00:00Z,26.4645,-82.1044,1.55,33.07,1111122 
SCCF RECON,ioos:station:SCCF:56:1,2019-01-02T07:00:00Z,26.4645,-82.1044,1.41,33.04,1111122 
SCCF RECON,ioos:station:SCCF:56:1,2019-01-02T08:00:00Z,26.4645,-82.1044,1.28,33.01,1111122 
SCCF RECON,ioos:station:SCCF:56:1,2019-01-02T09:00:00Z,26.4645,-82.1044,1.18,32.98,1111122 
SCCF RECON,ioos:station:SCCF:56:1,2019-01-02T10:00:00Z,26.4645,-82.1044,1.1,32.96,1111122 
SCCF RECON,ioos:station:SCCF:56:1,2019-01-02T11:00:00Z,26.4645,-82.1044,1.08,33.08,1111122 
SCCF RECON,ioos:station:SCCF:56:1,2019-01-02T12:00:00Z,26.4645,-82.1044,1.19,33.06,1111122 
SCCF RECON,ioos:station:SCCF:56:1,2019-01-02T13:00:00Z,26.4645,-82.1044,1.336,32.97,1111122 
SCCF RECON,ioos:station:SCCF:56:1,2019-01-02T14:00:00Z,26.4645,-82.1044,1.44,32.91,1111122 
SCCF RECON,ioos:station:SCCF:56:1,2019-01-02T15:00:00Z,26.4645,-82.1044,1.53,32.87,1111122 
SCCF RECON,ioos:station:SCCF:56:1,2019-01-02T16:00:00Z,26.4645,-82.1044,1.6,32.92,1111122 
SCCF RECON,ioos:station:SCCF:56:1,2019-01-02T17:00:00Z,26.4645,-82.1044,1.63,32.92,1111122 
SCCF RECON,ioos:station:SCCF:56:1,2019-01-02T18:00:00Z,26.4645,-82.1044,1.604,32.93,1111122 
SCCF RECON,ioos:station:SCCF:56:1,2019-01-02T19:00:00Z,26.4645,-82.1044,1.535,32.93,1111122 
SCCF RECON,ioos:station:SCCF:56:1,2019-01-02T20:00:00Z,26.4645,-82.1044,1.51,32.93,1111122 
SCCF RECON,ioos:station:SCCF:56:1,2019-01-02T21:00:00Z,26.4645,-82.1044,1.493,32.94,1111122 
SCCF RECON,ioos:station:SCCF:56:1,2019-01-02T22:00:00Z,26.4645,-82.1044,1.519,32.95,1111122 
SCCF RECON,ioos:station:SCCF:56:1,2019-01-02T23:00:00Z,26.4645,-82.1044,1.58,32.96,1111122 
SCCF RECON,ioos:station:SCCF:56:1,2019-01-03T05:00:00Z,26.4645,-82.1044,1.79,32.85,1111122 
SCCF RECON,ioos:station:SCCF:56:1,2019-01-03T06:00:00Z,26.4645,-82.1044,1.675,32.86,1111122 
SCCF RECON,ioos:station:SCCF:56:1,2019-01-03T07:00:00Z,26.4645,-82.1044,1.524,32.94,1111122 
SCCF RECON,ioos:station:SCCF:56:1,2019-01-03T08:00:00Z,26.4645,-82.1044,1.396,32.98,1111122 
SCCF RECON,ioos:station:SCCF:56:1,2019-01-03T09:00:00Z,26.4645,-82.1044,1.26,33.01,1111122 
SCCF RECON,ioos:station:SCCF:56:1,2019-01-03T10:00:00Z,26.4645,-82.1044,1.15,33.03,1111122 
SCCF RECON,ioos:station:SCCF:56:1,2019-01-03T11:00:00Z,26.4645,-82.1044,1.05,33.06,1111122 
SCCF RECON,ioos:station:SCCF:56:1,2019-01-03T12:00:00Z,26.4645,-82.1044,1.05,33.15,1111122 
SCCF RECON,ioos:station:SCCF:56:1,2019-01-03T13:00:00Z,26.4645,-82.1044,1.18,33.11,1111122 
SCCF RECON,ioos:station:SCCF:56:1,2019-01-03T14:00:00Z,26.4645,-82.1044,1.33,33.04,1111122 
SCCF RECON,ioos:station:SCCF:56:1,2019-01-03T15:00:00Z,26.4645,-82.1044,1.437,33.01,1111122 
SCCF RECON,ioos:station:SCCF:56:1,2019-01-03T16:00:00Z,26.4645,-82.1044,1.519,32.96,1111122 
SCCF RECON,ioos:station:SCCF:56:1,2019-01-03T17:00:00Z,26.4645,-82.1044,1.57,32.9,1111122 
SCCF RECON,ioos:station:SCCF:56:1,2019-01-03T18:00:00Z,26.4645,-82.1044,1.567,32.9,1111122 
SCCF RECON,ioos:station:SCCF:56:1,2019-01-03T19:00:00Z,26.4645,-82.1044,1.54,32.96,1111122 
SCCF RECON,ioos:station:SCCF:56:1,2019-01-03T20:00:00Z,26.4645,-82.1044,1.52,32.93,1111122 
SCCF RECON,ioos:station:SCCF:56:1,2019-01-03T21:00:00Z,26.4645,-82.1044,1.47,32.93,1111122 
SCCF RECON,ioos:station:SCCF:56:1,2019-01-03T22:00:00Z,26.4645,-82.1044,1.429,32.98,1111122 
SCCF RECON,ioos:station:SCCF:56:1,2019-01-03T23:00:00Z,26.4645,-82.1044,1.43,33.01,1111122 
SCCF RECON,ioos:station:SCCF:56:1,2019-01-04T05:00:00Z,26.4645,-82.1044,1.829,32.83,1111122 
SCCF RECON,ioos:station:SCCF:56:1,2019-01-04T06:00:00Z,26.4645,-82.1044,1.73,32.82,1111122 
SCCF RECON,ioos:station:SCCF:56:1,2019-01-04T07:00:00Z,26.4645,-82.1044,1.593,32.88,1111122 
SCCF RECON,ioos:station:SCCF:56:1,2019-01-04T08:00:00Z,26.4645,-82.1044,1.466,32.95,1111122 
SCCF RECON,ioos:station:SCCF:56:1,2019-01-04T09:00:00Z,26.4645,-82.1044,1.33,33.01,1111122 
SCCF RECON,ioos:station:SCCF:56:1,2019-01-04T10:00:00Z,26.4645,-82.1044,1.21,33.05,1111122 
SCCF RECON,ioos:station:SCCF:56:1,2019-01-04T11:00:00Z,26.4645,-82.1044,1.1,33.08,1111122 
SCCF RECON,ioos:station:SCCF:56:1,2019-01-04T12:00:00Z,26.4645,-82.1044,1.04,33.16,1111122 
SCCF RECON,ioos:station:SCCF:56:1,2019-01-04T13:00:00Z,26.4645,-82.1044,1.111,33.2,1111122 
SCCF RECON,ioos:station:SCCF:56:1,2019-01-04T14:00:00Z,26.4645,-82.1044,1.26,33.08,1111122 
SCCF RECON,ioos:station:SCCF:56:1,2019-01-04T15:00:00Z,26.4645,-82.1044,1.418,33.05,1111122 
SCCF RECON,ioos:station:SCCF:56:1,2019-01-04T17:00:00Z,26.4645,-82.1044,1.64,32.95,1111122 
SCCF RECON,ioos:station:SCCF:56:1,2019-01-04T18:00:00Z,26.4645,-82.1044,1.69,32.95,1111122 
SCCF RECON,ioos:station:SCCF:56:1,2019-01-04T19:00:00Z,26.4645,-82.1044,1.7,32.97,1111122 
SCCF RECON,ioos:station:SCCF:56:1,2019-01-04T20:00:00Z,26.4645,-82.1044,1.67,32.99,1111122 
SCCF RECON,ioos:station:SCCF:56:1,2019-01-04T21:00:00Z,26.4645,-82.1044,1.63,33.0,1111122 
SCCF RECON,ioos:station:SCCF:56:1,2019-01-04T22:00:00Z,26.4645,-82.1044,1.59,33.0,1111122 
SCCF RECON,ioos:station:SCCF:56:1,2019-01-04T23:00:00Z,26.4645,-82.1044,1.57,33.03,1111122 
SCCF RECON,ioos:station:SCCF:56:1,2019-01-05T05:00:00Z,26.4645,-82.1044,1.91,33.88,1111122 
SCCF RECON,ioos:station:SCCF:56:1,2019-01-05T06:00:00Z,26.4645,-82.1044,1.82,33.62,1111122 
SCCF RECON,ioos:station:SCCF:56:1,2019-01-05T07:00:00Z,26.4645,-82.1044,1.69,33.76,1111122 
SCCF RECON,ioos:station:SCCF:56:1,2019-01-05T08:00:00Z,26.4645,-82.1044,1.54,33.53,1111122 
SCCF RECON,ioos:station:SCCF:56:1,2019-01-05T09:00:00Z,26.4645,-82.1044,1.41,33.33,1111122 
SCCF RECON,ioos:station:SCCF:56:1,2019-01-05T10:00:00Z,26.4645,-82.1044,1.3,33.25,1111122 
SCCF RECON,ioos:station:SCCF:56:1,2019-01-05T11:00:00Z,26.4645,-82.1044,1.19,33.23,1111122 
SCCF RECON,ioos:station:SCCF:56:1,2019-01-05T12:00:00Z,26.4645,-82.1044,1.09,33.24,1111122 
SCCF RECON,ioos:station:SCCF:56:1,2019-01-05T13:00:00Z,26.4645,-82.1044,1.04,33.27,1111122 
SCCF RECON,ioos:station:SCCF:56:1,2019-01-05T14:00:00Z,26.4645,-82.1044,1.12,33.29,1111122 
SCCF RECON,ioos:station:SCCF:56:1,2019-01-05T15:00:00Z,26.4645,-82.1044,1.291,33.47,1111122 
SCCF RECON,ioos:station:SCCF:56:1,2019-01-05T16:00:00Z,26.4645,-82.1044,1.45,33.47,1111122 
SCCF RECON,ioos:station:SCCF:56:1,2019-01-05T17:00:00Z,26.4645,-82.1044,1.56,33.44,1111122 
SCCF RECON,ioos:station:SCCF:56:1,2019-01-05T18:00:00Z,26.4645,-82.1044,1.668,33.5,1111122 
SCCF RECON,ioos:station:SCCF:56:1,2019-01-05T19:00:00Z,26.4645,-82.1044,1.66,33.44,1111122 
SCCF RECON,ioos:station:SCCF:56:1,2019-01-05T20:00:00Z,26.4645,-82.1044,1.589,33.49,1111122 
SCCF RECON,ioos:station:SCCF:56:1,2019-01-05T21:00:00Z,26.4645,-82.1044,1.51,33.51,1111122 
SCCF RECON,ioos:station:SCCF:56:1,2019-01-05T22:00:00Z,26.4645,-82.1044,1.48,33.48,1111122 
SCCF RECON,ioos:station:SCCF:56:1,2019-01-05T23:00:00Z,26.4645,-82.1044,1.47,33.48,1111122 
SCCF RECON,ioos:station:SCCF:56:1,2019-01-06T05:00:00Z,26.4645,-82.1044,1.844,33.03,1111122 
SCCF RECON,ioos:station:SCCF:56:1,2019-01-06T06:00:00Z,26.4645,-82.1044,1.8,33.09,1111122 
SCCF RECON,ioos:station:SCCF:56:1,2019-01-06T07:00:00Z,26.4645,-82.1044,1.689,33.12,1111122 
SCCF RECON,ioos:station:SCCF:56:1,2019-01-06T08:00:00Z,26.4645,-82.1044,1.549,33.28,1111122 
SCCF RECON,ioos:station:SCCF:56:1,2019-01-06T09:00:00Z,26.4645,-82.1044,1.42,33.43,1111122 
SCCF RECON,ioos:station:SCCF:56:1,2019-01-06T10:00:00Z,26.4645,-82.1044,1.302,33.52,1111122 
SCCF RECON,ioos:station:SCCF:56:1,2019-01-06T11:00:00Z,26.4645,-82.1044,1.187,33.56,1111122 
SCCF RECON,ioos:station:SCCF:56:1,2019-01-06T12:00:00Z,26.4645,-82.1044,1.08,33.62,1111122 
SCCF RECON,ioos:station:SCCF:56:1,2019-01-06T13:00:00Z,26.4645,-82.1044,0.99,33.7,1111122 
SCCF RECON,ioos:station:SCCF:56:1,2019-01-06T14:00:00Z,26.4645,-82.1044,0.98,33.73,1111122 
SCCF RECON,ioos:station:SCCF:56:1,2019-01-06T15:00:00Z,26.4645,-82.1044,1.091,33.38,1111122 
SCCF RECON,ioos:station:SCCF:56:1,2019-01-06T16:00:00Z,26.4645,-82.1044,1.23,33.22,1111122 
SCCF RECON,ioos:station:SCCF:56:1,2019-01-06T17:00:00Z,26.4645,-82.1044,1.37,33.14,1111122 
SCCF RECON,ioos:station:SCCF:56:1,2019-01-06T18:00:00Z,26.4645,-82.1044,1.472,33.19,1111122 
SCCF RECON,ioos:station:SCCF:56:1,2019-01-06T19:00:00Z,26.4645,-82.1044,1.55,33.11,1111122 
SCCF RECON,ioos:station:SCCF:56:1,2019-01-06T20:00:00Z,26.4645,-82.1044,1.59,33.09,1111122 
SCCF RECON,ioos:station:SCCF:56:1,2019-01-06T21:00:00Z,26.4645,-82.1044,1.55,33.02,1111122 
SCCF RECON,ioos:station:SCCF:56:1,2019-01-06T22:00:00Z,26.4645,-82.1044,1.46,33.06,1111122 
SCCF RECON,ioos:station:SCCF:56:1,2019-01-06T23:00:00Z,26.4645,-82.1044,1.41,33.17,1111122 
SCCF RECON,ioos:station:SCCF:56:1,2019-01-07T05:00:00Z,26.4645,-82.1044,1.85,32.29,1111122 
SCCF RECON,ioos:station:SCCF:56:1,2019-01-07T06:00:00Z,26.4645,-82.1044,1.85,32.15,1111122 
SCCF RECON,ioos:station:SCCF:56:1,2019-01-07T07:00:00Z,26.4645,-82.1044,1.78,32.29,1111122 
SCCF RECON,ioos:station:SCCF:56:1,2019-01-07T09:00:00Z,26.4645,-82.1044,1.557,32.65,1111122 
SCCF RECON,ioos:station:SCCF:56:1,2019-01-07T10:00:00Z,26.4645,-82.1044,1.446,32.89,1111122 
SCCF RECON,ioos:station:SCCF:56:1,2019-01-07T11:00:00Z,26.4645,-82.1044,1.33,33.16,1111122 
SCCF RECON,ioos:station:SCCF:56:1,2019-01-07T12:00:00Z,26.4645,-82.1044,1.227,33.3,1111122 
SCCF RECON,ioos:station:SCCF:56:1,2019-01-07T13:00:00Z,26.4645,-82.1044,1.14,33.4,1111122 
SCCF RECON,ioos:station:SCCF:56:1,2019-01-07T14:00:00Z,26.4645,-82.1044,1.103,33.49,1111122 
SCCF RECON,ioos:station:SCCF:56:1,2019-01-07T15:00:00Z,26.4645,-82.1044,1.22,32.67,1111122 
SCCF RECON,ioos:station:SCCF:56:1,2019-01-07T16:00:00Z,26.4645,-82.1044,1.37,32.36,1111122 
SCCF RECON,ioos:station:SCCF:56:1,2019-01-07T17:00:00Z,26.4645,-82.1044,1.505,32.5,1111122 
SCCF RECON,ioos:station:SCCF:56:1,2019-01-07T18:00:00Z,26.4645,-82.1044,1.6,32.38,1111122 
SCCF RECON,ioos:station:SCCF:56:1,2019-01-07T19:00:00Z,26.4645,-82.1044,1.67,32.28,1111122 
SCCF RECON,ioos:station:SCCF:56:1,2019-01-07T20:00:00Z,26.4645,-82.1044,1.68,32.25,1111122 
SCCF RECON,ioos:station:SCCF:56:1,2019-01-07T21:00:00Z,26.4645,-82.1044,1.665,32.28,1111122 
SCCF RECON,ioos:station:SCCF:56:1,2019-01-07T22:00:00Z,26.4645,-82.1044,1.6,32.3,1111122 
SCCF RECON,ioos:station:SCCF:56:1,2019-01-07T23:00:00Z,26.4645,-82.1044,1.53,32.39,1111122 
SCCF RECON,ioos:station:SCCF:56:1,2019-01-08T05:00:00Z,26.4645,-82.1044,1.83,31.64,1111122 
SCCF RECON,ioos:station:SCCF:56:1,2019-01-08T06:00:00Z,26.4645,-82.1044,1.85,31.6,1111122 
SCCF RECON,ioos:station:SCCF:56:1,2019-01-08T07:00:00Z,26.4645,-82.1044,1.813,31.77,1111122 
SCCF RECON,ioos:station:SCCF:56:1,2019-01-08T08:00:00Z,26.4645,-82.1044,1.73,31.93,1111122 
SCCF RECON,ioos:station:SCCF:56:1,2019-01-08T09:00:00Z,26.4645,-82.1044,1.62,31.99,1111122 
SCCF RECON,ioos:station:SCCF:56:1,2019-01-08T10:00:00Z,26.4645,-82.1044,1.51,32.06,1111122 
SCCF RECON,ioos:station:SCCF:56:1,2019-01-08T11:00:00Z,26.4645,-82.1044,1.39,32.45,1111122 
SCCF RECON,ioos:station:SCCF:56:1,2019-01-08T12:00:00Z,26.4645,-82.1044,1.29,32.67,1111122 
SCCF RECON,ioos:station:SCCF:56:1,2019-01-08T13:00:00Z,26.4645,-82.1044,1.2,32.84,1111122 
SCCF RECON,ioos:station:SCCF:56:1,2019-01-08T14:00:00Z,26.4645,-82.1044,1.15,32.91,1111122 
SCCF RECON,ioos:station:SCCF:56:1,2019-01-08T15:00:00Z,26.4645,-82.1044,1.199,32.93,1111122 
SCCF RECON,ioos:station:SCCF:56:1,2019-01-15T20:00:00Z,26.4645,-82.1044,1.45,34.3,1111122 
SCCF RECON,ioos:station:SCCF:56:1,2019-01-15T22:00:00Z,26.4645,-82.1044,1.61,34.14,1111122 
SCCF RECON,ioos:station:SCCF:56:1,2019-01-15T23:00:00Z,26.4645,-82.1044,1.71,34.65,1111122 
SCCF RECON,ioos:station:SCCF:56:1,2019-01-16T05:00:00Z,26.4645,-82.1044,1.5,34.34,1111122 
SCCF RECON,ioos:station:SCCF:56:1,2019-01-16T06:00:00Z,26.4645,-82.1044,1.39,34.34,1111122 
SCCF RECON,ioos:station:SCCF:56:1,2019-01-16T07:00:00Z,26.4645,-82.1044,1.28,34.42,1111122 
SCCF RECON,ioos:station:SCCF:56:1,2019-01-16T08:00:00Z,26.4645,-82.1044,1.21,34.48,1111122 
SCCF RECON,ioos:station:SCCF:56:1,2019-01-16T09:00:00Z,26.4645,-82.1044,1.179,34.49,1111122 
SCCF RECON,ioos:station:SCCF:56:1,2019-01-16T10:00:00Z,26.4645,-82.1044,1.231,34.49,1111122 
SCCF RECON,ioos:station:SCCF:56:1,2019-01-16T11:00:00Z,26.4645,-82.1044,1.35,34.53,1111122 
SCCF RECON,ioos:station:SCCF:56:1,2019-01-16T12:00:00Z,26.4645,-82.1044,1.46,34.58,1111122 
SCCF RECON,ioos:station:SCCF:56:1,2019-01-16T13:00:00Z,26.4645,-82.1044,1.547,34.68,1111122 
SCCF RECON,ioos:station:SCCF:56:1,2019-01-16T14:00:00Z,26.4645,-82.1044,1.61,34.8,1111122 
SCCF RECON,ioos:station:SCCF:56:1,2019-01-16T21:00:00Z,26.4645,-82.1044,1.49,34.74,1111122 
SCCF RECON,ioos:station:SCCF:56:1,2019-01-16T22:00:00Z,26.4645,-82.1044,1.54,34.79,1111122 
SCCF RECON,ioos:station:SCCF:56:1,2019-01-16T23:00:00Z,26.4645,-82.1044,1.64,34.95,1111122 
SCCF RECON,ioos:station:SCCF:56:1,2019-01-17T05:00:00Z,26.4645,-82.1044,1.53,34.8,1111122 
SCCF RECON,ioos:station:SCCF:56:1,2019-01-17T06:00:00Z,26.4645,-82.1044,1.41,34.75,1111122 
SCCF RECON,ioos:station:SCCF:56:1,2019-01-17T07:00:00Z,26.4645,-82.1044,1.29,34.79,1111122 
SCCF RECON,ioos:station:SCCF:56:1,2019-01-17T08:00:00Z,26.4645,-82.1044,1.18,34.82,1111122 
SCCF RECON,ioos:station:SCCF:56:1,2019-01-17T09:00:00Z,26.4645,-82.1044,1.09,34.88,1111122 
SCCF RECON,ioos:station:SCCF:56:1,2019-01-17T10:00:00Z,26.4645,-82.1044,1.06,34.91,1111122 
SCCF RECON,ioos:station:SCCF:56:1,2019-01-17T11:00:00Z,26.4645,-82.1044,1.16,34.89,1111122 
SCCF RECON,ioos:station:SCCF:56:1,2019-01-17T12:00:00Z,26.4645,-82.1044,1.32,34.83,1111122 
SCCF RECON,ioos:station:SCCF:56:1,2019-01-17T13:00:00Z,26.4645,-82.1044,1.459,34.81,1111122 
SCCF RECON,ioos:station:SCCF:56:1,2019-01-17T14:00:00Z,26.4645,-82.1044,1.56,34.75,1111122 
SCCF RECON,ioos:station:SCCF:56:1,2019-01-17T15:00:00Z,26.4645,-82.1044,1.647,34.73,1111122 
SCCF RECON,ioos:station:SCCF:56:1,2019-01-17T16:00:00Z,26.4645,-82.1044,1.697,34.8,1111122 
SCCF RECON,ioos:station:SCCF:56:1,2019-01-17T17:00:00Z,26.4645,-82.1044,1.71,34.81,1111122 
SCCF RECON,ioos:station:SCCF:56:1,2019-01-17T18:00:00Z,26.4645,-82.1044,1.67,34.84,1111122 
SCCF RECON,ioos:station:SCCF:56:1,2019-01-17T19:00:00Z,26.4645,-82.1044,1.621,34.8,1111122 
SCCF RECON,ioos:station:SCCF:56:1,2019-01-17T20:00:00Z,26.4645,-82.1044,1.61,34.8,1111122 
SCCF RECON,ioos:station:SCCF:56:1,2019-01-17T21:00:00Z,26.4645,-82.1044,1.63,34.81,1111122 
SCCF RECON,ioos:station:SCCF:56:1,2019-01-17T22:00:00Z,26.4645,-82.1044,1.68,34.08,1111122 
SCCF RECON,ioos:station:SCCF:56:1,2019-01-17T23:00:00Z,26.4645,-82.1044,1.76,32.84,1111122 
SCCF RECON,ioos:station:SCCF:56:1,2019-01-18T05:00:00Z,26.4645,-82.1044,1.76,33.55,1111122 
SCCF RECON,ioos:station:SCCF:56:1,2019-01-18T06:00:00Z,26.4645,-82.1044,1.61,33.79,1111122 
SCCF RECON,ioos:station:SCCF:56:1,2019-01-18T07:00:00Z,26.4645,-82.1044,1.46,34.33,1111122 
SCCF RECON,ioos:station:SCCF:56:1,2019-01-18T08:00:00Z,26.4645,-82.1044,1.31,34.57,1111122 
SCCF RECON,ioos:station:SCCF:56:1,2019-01-18T09:00:00Z,26.4645,-82.1044,1.18,34.66,1111122 
SCCF RECON,ioos:station:SCCF:56:1,2019-01-18T10:00:00Z,26.4645,-82.1044,1.07,34.73,1111122 
SCCF RECON,ioos:station:SCCF:56:1,2019-01-18T11:00:00Z,26.4645,-82.1044,1.04,34.81,1111122 
SCCF RECON,ioos:station:SCCF:56:1,2019-01-18T12:00:00Z,26.4645,-82.1044,1.157,34.77,1111122 
SCCF RECON,ioos:station:SCCF:56:1,2019-01-18T13:00:00Z,26.4645,-82.1044,1.315,33.74,1111122 
SCCF RECON,ioos:station:SCCF:56:1,2019-01-18T14:00:00Z,26.4645,-82.1044,1.443,33.49,1111122 
SCCF RECON,ioos:station:SCCF:56:1,2019-01-18T15:00:00Z,26.4645,-82.1044,1.54,33.46,1111122 
SCCF RECON,ioos:station:SCCF:56:1,2019-01-18T16:00:00Z,26.4645,-82.1044,1.616,33.41,1111122 
SCCF RECON,ioos:station:SCCF:56:1,2019-01-18T17:00:00Z,26.4645,-82.1044,1.66,33.41,1111122 
SCCF RECON,ioos:station:SCCF:56:1,2019-01-18T18:00:00Z,26.4645,-82.1044,1.63,33.84,1111122 
SCCF RECON,ioos:station:SCCF:56:1,2019-01-18T19:00:00Z,26.4645,-82.1044,1.57,33.7,1111122 
SCCF RECON,ioos:station:SCCF:56:1,2019-01-18T20:00:00Z,26.4645,-82.1044,1.529,33.6,1111122 
SCCF RECON,ioos:station:SCCF:56:1,2019-01-18T21:00:00Z,26.4645,-82.1044,1.52,33.57,1111122 
SCCF RECON,ioos:station:SCCF:56:1,2019-01-18T22:00:00Z,26.4645,-82.1044,1.558,33.69,1111122 
SCCF RECON,ioos:station:SCCF:56:1,2019-01-18T23:00:00Z,26.4645,-82.1044,1.65,33.01,1111122 
SCCF RECON,ioos:station:SCCF:56:1,2019-01-19T05:00:00Z,26.4645,-82.1044,1.95,32.58,1111122 
SCCF RECON,ioos:station:SCCF:56:1,2019-01-19T06:00:00Z,26.4645,-82.1044,1.8,32.45,1111122 
SCCF RECON,ioos:station:SCCF:56:1,2019-01-19T07:00:00Z,26.4645,-82.1044,1.63,32.79,1111122 
SCCF RECON,ioos:station:SCCF:56:1,2019-01-19T08:00:00Z,26.4645,-82.1044,1.47,33.24,1111122 
SCCF RECON,ioos:station:SCCF:56:1,2019-01-19T09:00:00Z,26.4645,-82.1044,1.33,33.46,1111122 
SCCF RECON,ioos:station:SCCF:56:1,2019-01-19T10:00:00Z,26.4645,-82.1044,1.2,33.65,1111122 
SCCF RECON,ioos:station:SCCF:56:1,2019-01-19T11:00:00Z,26.4645,-82.1044,1.09,33.82,1111122 
SCCF RECON,ioos:station:SCCF:56:1,2019-01-19T12:00:00Z,26.4645,-82.1044,1.08,33.92,1111122 
SCCF RECON,ioos:station:SCCF:56:1,2019-01-19T13:00:00Z,26.4645,-82.1044,1.24,32.94,1111122 
SCCF RECON,ioos:station:SCCF:56:1,2019-01-19T14:00:00Z,26.4645,-82.1044,1.42,32.82,1111122 
SCCF RECON,ioos:station:SCCF:56:1,2019-01-19T15:00:00Z,26.4645,-82.1044,1.566,32.85,1111122 
SCCF RECON,ioos:station:SCCF:56:1,2019-01-19T16:00:00Z,26.4645,-82.1044,1.681,33.04,1111122 
SCCF RECON,ioos:station:SCCF:56:1,2019-01-19T17:00:00Z,26.4645,-82.1044,1.77,33.02,1111122 
SCCF RECON,ioos:station:SCCF:56:1,2019-01-19T18:00:00Z,26.4645,-82.1044,1.79,32.78,1111122 
SCCF RECON,ioos:station:SCCF:56:1,2019-01-19T19:00:00Z,26.4645,-82.1044,1.75,32.84,1111122 
SCCF RECON,ioos:station:SCCF:56:1,2019-01-19T20:00:00Z,26.4645,-82.1044,1.669,32.95,1111122 
SCCF RECON,ioos:station:SCCF:56:1,2019-01-19T21:00:00Z,26.4645,-82.1044,1.62,32.92,1111122 
SCCF RECON,ioos:station:SCCF:56:1,2019-01-19T22:00:00Z,26.4645,-82.1044,1.591,32.91,1111122 
SCCF RECON,ioos:station:SCCF:56:1,2019-01-19T23:00:00Z,26.4645,-82.1044,1.64,32.85,1111122 
SCCF RECON,ioos:station:SCCF:56:1,2019-01-20T05:00:00Z,26.4645,-82.1044,2.04,33.17,1111122 
SCCF RECON,ioos:station:SCCF:56:1,2019-01-20T06:00:00Z,26.4645,-82.1044,1.978,33.19,1111122 
SCCF RECON,ioos:station:SCCF:56:1,2019-01-20T07:00:00Z,26.4645,-82.1044,1.791,33.23,1111122 
SCCF RECON,ioos:station:SCCF:56:1,2019-01-20T08:00:00Z,26.4645,-82.1044,1.6,33.12,1111122 
SCCF RECON,ioos:station:SCCF:56:1,2019-01-20T09:00:00Z,26.4645,-82.1044,1.43,33.06,1111122 
SCCF RECON,ioos:station:SCCF:56:1,2019-01-20T10:00:00Z,26.4645,-82.1044,1.29,33.08,1111122 
SCCF RECON,ioos:station:SCCF:56:1,2019-01-20T11:00:00Z,26.4645,-82.1044,1.22,32.59,1111122 
SCCF RECON,ioos:station:SCCF:56:1,2019-01-20T12:00:00Z,26.4645,-82.1044,1.18,32.39,1111122 
SCCF RECON,ioos:station:SCCF:56:1,2019-01-20T13:00:00Z,26.4645,-82.1044,1.203,32.32,1111122 
SCCF RECON,ioos:station:SCCF:56:1,2019-01-20T14:00:00Z,26.4645,-82.1044,1.25,32.32,1111122 
SCCF RECON,ioos:station:SCCF:56:1,2019-01-20T15:00:00Z,26.4645,-82.1044,1.342,32.48,1111122 
SCCF RECON,ioos:station:SCCF:56:1,2019-01-20T16:00:00Z,26.4645,-82.1044,1.489,32.72,1111122 
SCCF RECON,ioos:station:SCCF:56:1,2019-01-20T17:00:00Z,26.4645,-82.1044,1.64,33.08,1111122 
SCCF RECON,ioos:station:SCCF:56:1,2019-01-20T18:00:00Z,26.4645,-82.1044,1.76,33.7,1111122 
SCCF RECON,ioos:station:SCCF:56:1,2019-01-20T19:00:00Z,26.4645,-82.1044,1.802,33.71,1111122 
SCCF RECON,ioos:station:SCCF:56:1,2019-01-20T20:00:00Z,26.4645,-82.1044,1.681,33.41,1111122 
SCCF RECON,ioos:station:SCCF:56:1,2019-01-20T21:00:00Z,26.4645,-82.1044,1.56,33.03,1111122 
SCCF RECON,ioos:station:SCCF:56:1,2019-01-20T22:00:00Z,26.4645,-82.1044,1.5,32.78,1111122 
SCCF RECON,ioos:station:SCCF:56:1,2019-01-20T23:00:00Z,26.4645,-82.1044,1.45,32.81,1111122 
SCCF RECON,ioos:station:SCCF:56:1,2019-01-21T05:00:00Z,26.4645,-82.1044,1.978,33.76,1111122 
SCCF RECON,ioos:station:SCCF:56:1,2019-01-21T06:00:00Z,26.4645,-82.1044,1.91,33.41,1111122 
SCCF RECON,ioos:station:SCCF:56:1,2019-01-21T07:00:00Z,26.4645,-82.1044,1.76,33.63,1111122 
SCCF RECON,ioos:station:SCCF:56:1,2019-01-21T08:00:00Z,26.4645,-82.1044,1.6,33.38,1111122 
SCCF RECON,ioos:station:SCCF:56:1,2019-01-21T09:00:00Z,26.4645,-82.1044,1.462,33.21,1111122 
SCCF RECON,ioos:station:SCCF:56:1,2019-01-21T10:00:00Z,26.4645,-82.1044,1.338,33.22,1111122 
SCCF RECON,ioos:station:SCCF:56:1,2019-01-21T11:00:00Z,26.4645,-82.1044,1.199,33.21,1111122 
SCCF RECON,ioos:station:SCCF:56:1,2019-01-21T12:00:00Z,26.4645,-82.1044,1.068,33.26,1111122 
SCCF RECON,ioos:station:SCCF:56:1,2019-01-21T13:00:00Z,26.4645,-82.1044,0.969,33.28,1111122 
SCCF RECON,ioos:station:SCCF:56:1,2019-01-21T14:00:00Z,26.4645,-82.1044,1.016,33.33,1111122 
SCCF RECON,ioos:station:SCCF:56:1,2019-01-21T15:00:00Z,26.4645,-82.1044,1.18,33.42,1111122 
SCCF RECON,ioos:station:SCCF:56:1,2019-01-21T16:00:00Z,26.4645,-82.1044,1.354,33.39,1111122 
SCCF RECON,ioos:station:SCCF:56:1,2019-01-21T17:00:00Z,26.4645,-82.1044,1.48,33.53,1111122 
SCCF RECON,ioos:station:SCCF:56:1,2019-01-21T18:00:00Z,26.4645,-82.1044,1.594,34.0,1111122 
SCCF RECON,ioos:station:SCCF:56:1,2019-01-21T19:00:00Z,26.4645,-82.1044,1.677,34.03,1111122 
SCCF RECON,ioos:station:SCCF:56:1,2019-01-21T20:00:00Z,26.4645,-82.1044,1.68,33.85,1111122 
SCCF RECON,ioos:station:SCCF:56:1,2019-01-21T21:00:00Z,26.4645,-82.1044,1.59,33.72,1111122 
SCCF RECON,ioos:station:SCCF:56:1,2019-01-21T22:00:00Z,26.4645,-82.1044,1.47,33.9,1111122 
SCCF RECON,ioos:station:SCCF:56:1,2019-01-21T23:00:00Z,26.4645,-82.1044,1.42,33.81,1111122 
SCCF RECON,ioos:station:SCCF:56:1,2019-01-22T05:00:00Z,26.4645,-82.1044,1.819,33.19,1111122 
SCCF RECON,ioos:station:SCCF:56:1,2019-01-22T06:00:00Z,26.4645,-82.1044,1.84,33.09,1111122 
SCCF RECON,ioos:station:SCCF:56:1,2019-01-22T07:00:00Z,26.4645,-82.1044,1.79,33.32,1111122 
SCCF RECON,ioos:station:SCCF:56:1,2019-01-22T08:00:00Z,26.4645,-82.1044,1.65,33.35,1111122 
SCCF RECON,ioos:station:SCCF:56:1,2019-01-22T09:00:00Z,26.4645,-82.1044,1.5,33.48,1111122 
SCCF RECON,ioos:station:SCCF:56:1,2019-01-22T10:00:00Z,26.4645,-82.1044,1.37,33.57,1111122 